| time (UTC) | temp F | wind direction | speed knots | gust knots | rain 1hr in | rain 24hr in | rain mn in | humidity % | barometer mb |
| 20260904095459 | 66 | 228 | 13.0 | 20.9 | 0.03 | 0.00 | 0.00 | 90 | 1009.2 |
| 20260904093958 | 66 | 228 | 13.0 | 20.9 | 0.03 | 0.00 | 0.00 | 90 | 1009.2 |
| 20260904092459 | 68 | 227 | 11.3 | 19.1 | 0.01 | 0.00 | 0.00 | 86 | 1009.0 |
| 20260904090958 | 68 | 236 | 14.8 | 22.6 | 0.00 | 0.00 | 0.00 | 83 | 1009.2 |
| 20260904085458 | 68 | 225 | 14.8 | 25.2 | 0.00 | 0.00 | 0.00 | 80 | 1009.0 |
| 20260904083957 | 68 | 222 | 14.8 | 25.2 | 0.00 | 0.00 | 0.00 | 81 | 1009.0 |
| 20260904082457 | 69 | 225 | 14.8 | 25.2 | 0.00 | 0.00 | 0.00 | 76 | 1009.4 |
| 20260904080957 | 69 | 227 | 14.8 | 22.6 | 0.00 | 0.00 | 0.00 | 76 | 1009.2 |
| 20260904075456 | 69 | 226 | 13.0 | 22.6 | 0.00 | 0.00 | 0.00 | 76 | 1009.4 |
| 20260904073955 | 68 | 216 | 13.0 | 20.9 | 0.00 | 0.00 | 0.00 | 77 | 1009.6 |
| 20260904072455 | 68 | 219 | 13.0 | 20.9 | 0.00 | 0.00 | 0.00 | 77 | 1009.6 |
| 20260904070955 | 68 | 228 | 14.8 | 22.6 | 0.00 | 0.00 | 0.00 | 77 | 1010.0 |
| 20260904065455 | 68 | 226 | 13.0 | 22.6 | 0.00 | 0.00 | 0.00 | 78 | 1010.2 |
| 20260904063954 | 68 | 222 | 11.3 | 17.4 | 0.00 | 0.00 | 0.00 | 79 | 1010.2 |
| 20260904062453 | 68 | 226 | 13.0 | 20.9 | 0.00 | 0.00 | 0.00 | 77 | 1010.2 |
| 20260904060953 | 68 | 222 | 13.0 | 20.9 | 0.00 | 0.00 | 0.00 | 78 | 1010.4 |
| 20260904055453 | 68 | 225 | 14.8 | 20.9 | 0.00 | 0.00 | 0.00 | 79 | 1010.5 |
| 20260904053952 | 68 | 224 | 13.0 | 22.6 | 0.00 | 0.00 | 0.00 | 80 | 1010.7 |
| 20260904052452 | 68 | 222 | 13.0 | 22.6 | 0.00 | 0.00 | 0.00 | 80 | 1010.9 |
| 20260904050952 | 68 | 225 | 11.3 | 19.1 | 0.00 | 0.00 | 0.00 | 82 | 1011.0 |
| 20260904045452 | 66 | 220 | 11.3 | 19.1 | 0.00 | 0.00 | 0.00 | 84 | 1011.2 |
| 20260904043951 | 66 | 220 | 11.3 | 19.1 | 0.00 | 0.00 | 0.00 | 84 | 1011.2 |
| 20260904042452 | 68 | 220 | 9.6 | 14.8 | 0.00 | 0.00 | 0.00 | 84 | 1011.6 |
| 20260904040951 | 68 | 221 | 9.6 | 14.8 | 0.00 | 0.00 | 0.00 | 84 | 1011.6 |
| 20260904035451 | 68 | 221 | 9.6 | 14.8 | 0.00 | 0.00 | 0.00 | 84 | 1011.8 |
| 20260904033950 | 68 | 219 | 9.6 | 14.8 | 0.00 | 0.00 | 0.00 | 85 | 1012.0 |
| 20260904032450 | 66 | 221 | 9.6 | 14.8 | 0.00 | 0.00 | 0.00 | 85 | 1012.2 |
| 20260904030949 | 68 | 219 | 9.6 | 13.0 | 0.00 | 0.00 | 0.00 | 85 | 1012.2 |
| 20260904025449 | 66 | 220 | 7.0 | 13.0 | 0.00 | 0.00 | 0.00 | 86 | 1012.6 |
| 20260904023949 | 66 | 215 | 9.6 | 14.8 | 0.00 | 0.00 | 0.00 | 88 | 1012.8 |
| 20260904022449 | 66 | 212 | 9.6 | 14.8 | 0.00 | 0.00 | 0.00 | 88 | 1012.8 |
| 20260904020948 | 66 | 211 | 9.6 | 13.0 | 0.00 | 0.00 | 0.00 | 88 | 1013.0 |
| 20260904015448 | 66 | 212 | 7.0 | 14.8 | 0.00 | 0.00 | 0.00 | 88 | 1013.2 |
| 20260904013948 | 66 | 215 | 9.6 | 14.8 | 0.00 | 0.00 | 0.00 | 87 | 1013.4 |
| 20260904012449 | 66 | 215 | 7.0 | 13.0 | 0.00 | 0.00 | 0.00 | 88 | 1013.6 |
| 20260904010948 | 66 | 217 | 7.0 | 11.3 | 0.00 | 0.00 | 0.00 | 89 | 1013.8 |
| 20260904005448 | 66 | 218 | 7.0 | 14.8 | 0.00 | 0.00 | 0.00 | 89 | 1013.8 |
| 20260904003948 | 64 | 219 | 7.0 | 14.8 | 0.00 | 0.00 | 0.00 | 89 | 1013.9 |
| 20260904002447 | 64 | 212 | 7.0 | 9.6 | 0.00 | 0.00 | 0.00 | 89 | 1014.1 |
| 20260904000946 | 64 | 211 | 7.0 | 9.6 | 0.00 | 0.00 | 0.00 | 88 | 1014.4 |
| 20260903235447 | 64 | 211 | 5.2 | 9.6 | 0.00 | 0.00 | 0.00 | 88 | 1014.7 |
| 20260903233945 | 64 | 211 | 5.2 | 9.6 | 0.00 | 0.00 | 0.00 | 86 | 1014.9 |
| 20260903232445 | 64 | 209 | 5.2 | 9.6 | 0.00 | 0.00 | 0.00 | 85 | 1014.9 |
| 20260903230945 | 64 | 206 | 5.2 | 9.6 | 0.00 | 0.00 | 0.00 | 84 | 1015.0 |
| 20260903225445 | 64 | 205 | 5.2 | 9.6 | 0.00 | 0.00 | 0.00 | 85 | 1015.2 |
| 20260903223943 | 64 | 204 | 5.2 | 7.0 | 0.00 | 0.00 | 0.00 | 83 | 1015.3 |
| 20260903222444 | 64 | 207 | 3.5 | 5.2 | 0.00 | 0.00 | 0.00 | 85 | 1015.6 |
| 20260903220942 | 64 | 205 | 5.2 | 9.6 | 0.00 | 0.00 | 0.00 | 83 | 1015.5 |
| 20260903215443 | 64 | 209 | 5.2 | 9.6 | 0.01 | 0.00 | 0.00 | 83 | 1015.8 |
| 20260903213942 | 64 | 214 | 5.2 | 7.0 | 0.00 | 0.00 | 0.00 | 81 | 1015.9 |
| 20260903212442 | 64 | 221 | 5.2 | 9.6 | 0.00 | 0.00 | 0.00 | 80 | 1016.0 |
| 20260903210942 | 66 | 220 | 5.2 | 9.6 | 0.00 | 0.00 | 0.00 | 78 | 1016.0 |
| 20260903205442 | 64 | 218 | 5.2 | 9.6 | 0.00 | 0.00 | 0.00 | 79 | 1016.0 |
| 20260903203942 | 66 | 219 | 5.2 | 9.6 | 0.00 | 0.00 | 0.00 | 77 | 1016.3 |
| 20260903202442 | 66 | 217 | 5.2 | 9.6 | 0.00 | 0.00 | 0.00 | 76 | 1016.2 |
| 20260903200942 | 64 | 225 | 5.2 | 7.0 | 0.00 | 0.00 | 0.00 | 76 | 1016.4 |
| 20260903195442 | 64 | 220 | 3.5 | 7.0 | 0.00 | 0.00 | 0.00 | 75 | 1016.3 |
| 20260903193940 | 66 | 217 | 3.5 | 7.0 | 0.00 | 0.00 | 0.00 | 73 | 1016.4 |
| 20260903192441 | 66 | 226 | 5.2 | 9.6 | 0.00 | 0.00 | 0.00 | 72 | 1016.3 |
| 20260903190939 | 68 | 248 | 7.0 | 11.3 | 0.00 | 0.00 | 0.00 | 68 | 1016.3 |
| 20260903185440 | 68 | 244 | 7.0 | 11.3 | 0.00 | 0.00 | 0.00 | 68 | 1016.3 |
| 20260903183939 | 68 | 237 | 7.0 | 11.3 | 0.00 | 0.00 | 0.00 | 67 | 1016.1 |
| 20260903182438 | 68 | 260 | 5.2 | 9.6 | 0.00 | 0.00 | 0.00 | 67 | 1016.3 |
| 20260903180937 | 68 | 264 | 5.2 | 9.6 | 0.00 | 0.00 | 0.00 | 69 | 1016.3 |
| 20260903175437 | 69 | 267 | 7.0 | 13.0 | 0.00 | 0.00 | 0.00 | 66 | 1016.2 |
| 20260903173936 | 69 | 262 | 9.6 | 13.0 | 0.00 | 0.00 | 0.00 | 65 | 1015.5 |
| 20260903172435 | 69 | 268 | 9.6 | 14.8 | 0.00 | 0.00 | 0.00 | 62 | 1015.6 |
| 20260903170935 | 71 | 266 | 9.6 | 14.8 | 0.00 | 0.00 | 0.00 | 61 | 1015.6 |
| 20260903165434 | 71 | 266 | 11.3 | 20.9 | 0.00 | 0.00 | 0.00 | 60 | 1015.9 |
| 20260903163933 | 71 | 265 | 11.3 | 14.8 | 0.00 | 0.00 | 0.00 | 60 | 1015.7 |
| 20260903162434 | 71 | 268 | 11.3 | 17.4 | 0.00 | 0.00 | 0.00 | 61 | 1015.8 |
| 20260903160933 | 71 | 268 | 9.6 | 17.4 | 0.00 | 0.00 | 0.00 | 61 | 1015.8 |
| 20260903155433 | 71 | 284 | 9.6 | 14.8 | 0.00 | 0.00 | 0.00 | 63 | 1015.6 |
| 20260903153932 | 71 | 271 | 11.3 | 19.1 | 0.00 | 0.00 | 0.00 | 60 | 1015.6 |
| 20260903152432 | 71 | 278 | 9.6 | 17.4 | 0.00 | 0.00 | 0.00 | 60 | 1015.6 |
| 20260903150931 | 71 | 267 | 13.0 | 22.6 | 0.00 | 0.00 | 0.00 | 63 | 1015.5 |
| 20260903145430 | 71 | 267 | 13.0 | 22.6 | 0.00 | 0.00 | 0.00 | 63 | 1015.5 |
| 20260903143930 | 71 | 254 | 13.0 | 20.9 | 0.00 | 0.00 | 0.00 | 63 | 1015.5 |
| 20260903142429 | 73 | 250 | 11.3 | 19.1 | 0.00 | 0.00 | 0.00 | 62 | 1015.4 |
| 20260903140928 | 73 | 250 | 11.3 | 19.1 | 0.00 | 0.00 | 0.00 | 62 | 1015.4 |
| 20260903135427 | 71 | 237 | 13.0 | 20.9 | 0.00 | 0.00 | 0.00 | 70 | 1015.3 |
| 20260903133927 | 71 | 237 | 13.0 | 20.9 | 0.00 | 0.00 | 0.00 | 70 | 1015.3 |
| 20260903132427 | 71 | 237 | 13.0 | 20.9 | 0.00 | 0.00 | 0.00 | 70 | 1015.3 |
| 20260903130926 | 71 | 241 | 11.3 | 19.1 | 0.00 | 0.00 | 0.00 | 67 | 1015.2 |
| 20260903125425 | 71 | 242 | 13.0 | 20.9 | 0.00 | 0.00 | 0.00 | 68 | 1015.2 |
| 20260903123925 | 71 | 248 | 13.0 | 20.9 | 0.00 | 0.00 | 0.00 | 69 | 1015.2 |
| 20260903122424 | 69 | 241 | 13.0 | 20.9 | 0.00 | 0.00 | 0.00 | 71 | 1015.1 |
| 20260903120924 | 69 | 245 | 9.6 | 17.4 | 0.00 | 0.00 | 0.00 | 74 | 1015.1 |
| 20260903115423 | 68 | 236 | 11.3 | 17.4 | 0.00 | 0.00 | 0.00 | 79 | 1015.3 |
| 20260903113923 | 68 | 237 | 13.0 | 20.9 | 0.00 | 0.00 | 0.00 | 77 | 1015.2 |
| 20260903112422 | 68 | 239 | 7.0 | 13.0 | 0.00 | 0.00 | 0.00 | 83 | 1015.3 |
| 20260903110922 | 68 | 239 | 7.0 | 13.0 | 0.00 | 0.00 | 0.00 | 83 | 1015.3 |
| 20260903105422 | 66 | 223 | 7.0 | 13.0 | 0.00 | 0.00 | 0.00 | 90 | 1015.6 |
| 20260903103921 | 64 | 221 | 9.6 | 14.8 | 0.01 | 0.00 | 0.00 | 92 | 1015.6 |
| 20260903102420 | 64 | 221 | 9.6 | 14.8 | 0.01 | 0.00 | 0.00 | 92 | 1015.6 |
| 20260903100920 | 64 | 226 | 11.3 | 19.1 | 0.00 | 0.00 | 0.00 | 86 | 1015.4 |